Location: *
(39.6167°S, 171.5333°W)
Time: 20:07:38
(UTC+00:00)

Cosmos 2026 Rocket - Pass Details

Date: 13 May 2021
Orbit: 940 x 1000 km, 82.9° (Epoch: 20 June)

Event Time Altitude Azimuth Distance (km) Brightness Sun altitude
Rises 16:28:16 0° 185° (S) 3,709 6.9 -22.0°
Reaches altitude 10° 16:30:51 10° 181° (S) 2,746 6.3 -21.5°
Maximum altitude 16:37:06 64° 99° (E) 1,065 4.4 -20.3°
Drops below altitude 10° 16:43:10 10° 18° (NNE) 2,675 6.6 -19.1°
Sets 16:45:39 0° 14° (NNE) 3,606 7.3 -18.7°
